Regional Weather Roundup
Issued by NWS

Home | Current Version | Previous Version | Graphics & Text | Print | Product List | Glossary On
Versions: 1 2 3 4 5 6 7 8 9 10 11 12 13 14 15 16 17 18 19 20 21 22 23 24 25 26 27 28 29 30 31 32 33 34 35 36 37 38 39 40 41 42 43 44 45 46 47 48 49 50
000
ASUS43 KMKX 261000
RWRWI

WISCONSIN REGIONAL WEATHER ROUNDUP
NATIONAL WEATHER SERVICE MILWAUKEE/SULLIVAN WI
400 AM CST WED NOV 26 2014

NOTE: "FAIR" INDICATES FEW OR NO CLOUDS BELOW 12,000 FEET WITH NO
SIGNIFICANT WEATHER AND/OR OBSTRUCTIONS TO VISIBILITY.

WIZ001-002-006>008-014>016-023>028-261100-
NORTHWEST WISCONSIN

CITY           SKY/WX    TMP DP  RH WIND       PRES   REMARKS
SUPERIOR ARPT  CLOUDY    20  16  87 CALM      30.11F
ASHLAND        CLOUDY    18  15  88 CALM      30.13S
HAYWARD        CLOUDY    20  16  84 CALM      30.08S
SIREN          MOCLDY    22  17  81 CALM      30.08S
CUMBERLAND     CLOUDY    21  18  86 E8        30.06S WCI  12
RICE LAKE      CLOUDY    22  17  81 E5        30.09S WCI  15
CHETEK         CLOUDY    22  17  83 E3        30.07S
LADYSMITH      CLOUDY    22  18  84 E6        30.08F WCI  14
EAU CLAIRE     NOT AVBL
MENOMONIE      MOCLDY    20  16  82 E6        30.08R WCI  13
NEW RICHMOND   CLOUDY    23  17  77 E6        30.06S WCI  15
OSCEOLA        CLOUDY    24  17  74 E6        30.09S WCI  17
$$

WIZ003>005-009-010-017-018-261100-
NORTH CENTRAL WISCONSIN

CITY           SKY/WX    TMP DP  RH WIND       PRES   REMARKS
MANITOWISH WTR CLOUDY    13  11  93 CALM      30.06F
ARBOR VITAE    CLOUDY    17  14  89 CALM      30.07S
WOODRUFF       CLOUDY    17  14  89 CALM      30.07S
RHINELANDER    CLOUDY    12   9  87 CALM      30.07F
EAGLE RIVER    CLOUDY    11   7  85 CALM      30.08S
LAND O LAKES   CLOUDY     4   1  85 CALM      30.09S
PHILLIPS       CLOUDY    17  14  89 CALM      30.07F
TOMAHAWK       CLOUDY    14  12  91 CALM      30.08F
MEDFORD        CLOUDY    18  15  89 SE5       30.07F WCI  11
MERRILL        CLOUDY    14  12  92 E3        30.09F
$$

WIZ029-030-035-036-043>047-261100-
CENTRAL WISCONSIN

CITY           SKY/WX    TMP DP  RH WIND       PRES   REMARKS
WAUSAU         CLOUDY    15  13  91 E6        30.09F WCI   6
MOSINEE        CLOUDY    16  16 100 CALM      30.11F
MARSHFIELD     CLOUDY    18  15  88 E6        30.07F WCI  10
STEVENS POINT  CLOUDY    13  11  92 CALM      30.12F
WAUPACA        MOCLDY    15  12  88 CALM      30.15S
WAUTOMA        NOT AVBL
WISC RAPIDS    MOCLDY    15  12  88 E3        30.12F
CAMP DOUGLAS   NOT AVBL
$$

WIZ011>013-019>022-031-037>040-048>050-261100-
NORTHEAST WISCONSIN

CITY           SKY/WX    TMP DP  RH WIND       PRES   REMARKS
ANTIGO         CLOUDY    13  12  94 CALM      30.10R
SHAWANO        CLOUDY    16  13  88 CALM      30.14F
OCONTO         CLEAR      6   5  92 CALM      30.17F
STURGEON BAY   CLOUDY    19  14  79 S6        30.16F WCI  11
GREEN BAY      CLOUDY    15  12  88 CALM      30.17S
MANITOWOC      NOT AVBL
APPLETON       PTCLDY    14  14 100 CALM      30.15F
CLINTONVILLE   CLOUDY    14  12  92 CALM      30.14F
OSHKOSH        PTCLDY    11   8  88 SE7       30.14F FOG     WCI   0
$$

WIZ032>034-041-042-053>061-261100-
SOUTHWEST WISCONSIN

CITY           SKY/WX    TMP DP  RH WIND       PRES   REMARKS
LA CROSSE      PTCLDY    19  14  81 E3        30.08F
SPARTA         MOCLDY    18  15  86 E3        30.10F
VIROQUA        PTCLDY    15  14  96 SE10      30.05S WCI   2
BOSCOBEL       MOCLDY    13   9  84 CALM      30.11F
PRAIRIE DU CHI PTCLDY    16  12  86 CALM      30.08F
PLATTEVILLE    FAIR      13  11  91 E6        30.09F WCI   4
$$

WIZ056-057-062-063-064-067-068-261100-
SOUTH CENTRAL WISCONSIN

CITY           SKY/WX    TMP DP  RH WIND       PRES   REMARKS
REEDSBURG      MOCLDY     7   4  89 CALM      30.11F
BARABOO/DELLS  PTCLDY     7   4  89 E3        30.11F
LONE ROCK      NOT AVBL
MINERAL POINT  MOCLDY    18  14  86 SE6       30.08F WCI   9
MADISON        PTCLDY    10   6  84 CALM      30.14F
MIDDLETON      PTCLDY     6   1  82 CALM      30.14S
WATERTOWN      PTCLDY     8   6  91 CALM      30.14F
MONROE         MOCLDY    12  10  92 E3        30.11S FOG
JANESVILLE     PTCLDY     9   5  85 CALM      30.14S FOG
$$

WIZ051-052-058>065-066-070>072-261100-
SOUTHEAST WISCONSIN

CITY           SKY/WX    TMP DP  RH WIND       PRES   REMARKS
MILWAUKEE      CLEAR     15  11  83 CALM      30.15F FOG
WAUKESHA       CLEAR     10   9  92 CALM      30.16S
MILWAUKEE/TIMM CLEAR     16  14  93 CALM      30.17F FOG
RACINE         CLEAR     12   9  87 CALM      30.16F
BURLINGTON     LGT SNOW   9   7  93 NW3       30.14F
KENOSHA        PTCLDY    12  10  92 E3        30.14F FOG
FOND DU LAC    CLEAR      9   4  80 SE3       30.15F
SHEBOYGAN      CLOUDY    20  15  81 CALM      30.16F
WEST BEND      CLOUDY    19  16  86 CALM      30.15F
JUNEAU         PTCLDY    11   9  92 E5        30.15F FOG     WCI   3
$$

LSZ147-162-261100-
LAKE SUPERIOR

STATION/POSITION TIME  TEMP    WIND        PRES    WAVE
                       AIR SEA DIR/SP/G            HT/PER
                 (UTC) (F)     (DEG/KT/KT) (MB)    (FT/S)
DEVILS ISLAND    0900   24     230/  8/ 10 1021.1R
PORT WING        0900   19     150/  2/  4 1020.3S
SAXON HARBOR     0900   18      CALM  /  4 1020.3
$$

LMZ867-665-643>646-261100-
LAKE MICHIGAN

STATION/POSITION TIME  TEMP    WIND        PRES    WAVE
                       AIR SEA DIR/SP/G            HT/PER
                 (UTC) (F)     (DEG/KT/KT) (MB)    (FT/S)
CHAMBERS ISLAND  0900   22      CALM  /  5 1022.0F
N MID LAKE BUOY  0850   29 42  270/  6/ 10 1022.4F   1/ 3
NORTHPORT PIER   0905   23     230/  2/  6 1021.7F
SISTER BAY       0828             CALM       N/A
ALGOMA LAKESHORE 0828             CALM       N/A
KEWAUNEE LAKESHO 0900   20      CALM  /  3 1021.5S
SHEBOYGAN LAKESH 0900   22 36  320/  5/  6 1023.2F
PORT WASHINGTON  0900   21     280/  2/  6 1023.0F
MILWAUKEE LAKESH 0900   21     160/  3/  4   N/A
S MID LAKE BUOY  0850   28 42  260/  8/ 12 1022.9S   2/ 5
KENOSHA   LAKESH 0900   18      CALM  /  2 1021.7F
$$

TC  - TEMPERATURE IN CELSIUS
VSB - VISIBILITY IN STATUTE MILES
WCI - WIND CHILL INDEX
HX  - HEAT INDEX




USA.gov is the U.S. government's official web portal to all federal, state and local government web resources and services.